When you browse on this site, cookies collect data to enhance your experience and personalize the content and advertising you see.
Visit our Privacy Policy to learn more. By continuing to use the site, you agree to this use of cookies and data.
  • în România
  • Lista ţărilor
  • Pe 7 zile
  • Temperatura apei
  • Hartă satelitară
  • Meteo pe hartă
  • Widget-uri
  • user-avatar
    Intrare

    Meteo pe oră la Abutkovo

    Astăzi, 17 Noiembrie, Sâmbătă

    Timp Temperatura Precipitaţii Vânt Presiune Umiditate
    00:00 -3°C° 0 mm 2 m/s 763 mmHg 75%
    01:00 -3°C° 0 mm 2 m/s 763 mmHg 76%
    02:00 -3°C° 0 mm 2 m/s 762 mmHg 80%
    03:00 -3°C° 0 mm 2 m/s 762 mmHg 80%
    04:00 -3°C° 0 mm 2 m/s 761 mmHg 80%
    05:00 -4°C° 0 mm 3 m/s 761 mmHg 80%
    06:00 -4°C° 0 mm 3 m/s 761 mmHg 79%
    07:00 -4°C° 0 mm 3 m/s 760 mmHg 79%
    08:00 -4°C° 0 mm 3 m/s 760 mmHg 78%
    09:00 -3°C° 0 mm 4 m/s 759 mmHg 74%
    10:00 -2°C° 0 mm 4 m/s 759 mmHg 70%
    11:00 -1°C° 0 mm 4 m/s 758 mmHg 66%
    12:00 -1°C° 0 mm 4 m/s 758 mmHg 66%
    13:00 -1°C° 0 mm 4 m/s 757 mmHg 66%
    14:00 -1°C° 0 mm 4 m/s 756 mmHg 66%
    15:00 -1°C° 0.3 mm 4 m/s 755 mmHg 71%
    16:00 -1°C° 0.3 mm 4 m/s 755 mmHg 75%
    17:00 -2°C° 0.3 mm 4 m/s 754 mmHg 79%
    18:00 -2°C° 0.4 mm 4 m/s 753 mmHg 82%
    19:00 -2°C° 0.4 mm 4 m/s 752 mmHg 86%
    20:00 -2°C° 0.4 mm 4 m/s 752 mmHg 89%
    21:00 -2°C° 0.1 mm 4 m/s 751 mmHg 89%
    22:00 -2°C° 0.1 mm 4 m/s 750 mmHg 89%
    23:00 -1°C° 0.1 mm 4 m/s 749 mmHg 89%

    Mâine, 18 Noiembrie, Duminică

    Timp Temperatura Precipitaţii Vânt Presiune Umiditate
    00:00 -1°C° 0.1 mm 4 m/s 749 mmHg 90%
    01:00 -1°C° 0.1 mm 4 m/s 748 mmHg 91%
    02:00 -1°C° 0.1 mm 4 m/s 748 mmHg 91%
    03:00 -1°C° 0.1 mm 4 m/s 747 mmHg 92%
    04:00 0°C° 0.1 mm 3 m/s 747 mmHg 92%
    05:00 0°C° 0.1 mm 3 m/s 746 mmHg 93%
    06:00 0°C° 0.1 mm 3 m/s 746 mmHg 93%
    07:00 0°C° 0.1 mm 3 m/s 746 mmHg 94%
    08:00 +1°C° 0.1 mm 2 m/s 746 mmHg 95%
    09:00 +1°C° 0.1 mm 2 m/s 746 mmHg 95%
    10:00 +1°C° 0.1 mm 2 m/s 746 mmHg 95%
    11:00 +2°C° 0.1 mm 2 m/s 746 mmHg 95%
    12:00 +3°C° 0.1 mm 1 m/s 746 mmHg 96%
    13:00 +3°C° 0.1 mm 1 m/s 746 mmHg 96%
    14:00 +3°C° 0.1 mm 1 m/s 747 mmHg 97%
    15:00 +2°C° 0.1 mm 1 m/s 747 mmHg 97%
    16:00 +2°C° 0.1 mm 1 m/s 747 mmHg 97%
    17:00 +2°C° 0.1 mm 1 m/s 747 mmHg 97%
    18:00 +2°C° 0.1 mm 1 m/s 748 mmHg 98%
    19:00 +2°C° 0.1 mm 1 m/s 748 mmHg 98%
    20:00 +2°C° 0.1 mm 1 m/s 748 mmHg 98%
    21:00 +1°C° 0.1 mm 2 m/s 749 mmHg 98%
    22:00 +1°C° 0.1 mm 2 m/s 749 mmHg 97%
    23:00 +1°C° 0.1 mm 2 m/s 749 mmHg 97%

    Poimâine, 19 Noiembrie, Luni

    Timp Temperatura Precipitaţii Vânt Presiune Umiditate
    00:00 +1°C° 0.1 mm 2 m/s 750 mmHg 97%
    01:00 +1°C° 0.1 mm 2 m/s 750 mmHg 97%
    02:00 +1°C° 0.1 mm 2 m/s 750 mmHg 97%
    03:00 +1°C° 0.1 mm 2 m/s 751 mmHg 97%
    04:00 +1°C° 0.1 mm 2 m/s 751 mmHg 97%
    05:00 +1°C° 0.1 mm 2 m/s 752 mmHg 97%
    06:00 +1°C° 0 mm 2 m/s 752 mmHg 96%
    07:00 +1°C° 0 mm 2 m/s 752 mmHg 96%
    08:00 +1°C° 0 mm 2 m/s 753 mmHg 96%
    09:00 +1°C° 0 mm 2 m/s 753 mmHg 95%
    10:00 +1°C° 0 mm 2 m/s 754 mmHg 94%
    11:00 +1°C° 0 mm 2 m/s 754 mmHg 93%
    12:00 +1°C° 0 mm 2 m/s 754 mmHg 93%
    13:00 +1°C° 0 mm 2 m/s 755 mmHg 94%
    14:00 +1°C° 0 mm 2 m/s 755 mmHg 94%
    15:00 +1°C° 0 mm 2 m/s 755 mmHg 94%
    16:00 +1°C° 0 mm 2 m/s 755 mmHg 95%
    17:00 0°C° 0 mm 3 m/s 755 mmHg 96%
    18:00 -1°C° 0 mm 2 m/s 755 mmHg 96%
    19:00 -1°C° 0 mm 2 m/s 755 mmHg 96%
    20:00 -1°C° 0 mm 2 m/s 755 mmHg 96%
    21:00 -1°C° 0 mm 2 m/s 755 mmHg 96%
    22:00 -1°C° 0 mm 2 m/s 755 mmHg 96%
    23:00 -1°C° 0 mm 2 m/s 755 mmHg 96%

    20 Noiembrie, Marţi

    Timp Temperatura Precipitaţii Vânt Presiune Umiditate
    00:00 -1°C° 0 mm 2 m/s 755 mmHg 96%
    01:00 -1°C° 0 mm 2 m/s 755 mmHg 96%
    02:00 -2°C° 0 mm 2 m/s 755 mmHg 96%
    03:00 -2°C° 0 mm 2 m/s 755 mmHg 96%
    04:00 0°C° 0 mm 1 m/s 754 mmHg 95%
    05:00 0°C° 0 mm 1 m/s 754 mmHg 95%
    06:00 0°C° 0.1 mm 1 m/s 754 mmHg 95%
    07:00 0°C° 0.1 mm 1 m/s 754 mmHg 96%
    08:00 0°C° 0.1 mm 1 m/s 754 mmHg 96%
    09:00 +1°C° 0 mm 1 m/s 753 mmHg 94%
    10:00 +1°C° 0 mm 1 m/s 753 mmHg 93%
    11:00 +1°C° 0 mm 1 m/s 753 mmHg 91%
    12:00 +1°C° 0 mm 1 m/s 752 mmHg 91%
    13:00 +1°C° 0 mm 1 m/s 752 mmHg 90%
    14:00 +1°C° 0 mm 1 m/s 752 mmHg 90%
    15:00 +1°C° 0 mm 1 m/s 751 mmHg 91%
    16:00 +1°C° 0 mm 1 m/s 751 mmHg 92%
    17:00 0°C° 0 mm 1 m/s 751 mmHg 93%
    18:00 0°C° 0 mm 1 m/s 751 mmHg 93%
    19:00 0°C° 0 mm 1 m/s 751 mmHg 93%
    20:00 0°C° 0 mm 1 m/s 750 mmHg 93%
    21:00 0°C° 0 mm 1 m/s 750 mmHg 92%
    22:00 0°C° 0 mm 1 m/s 750 mmHg 92%
    23:00 -1°C° 0 mm 1 m/s 750 mmHg 92%

    21 Noiembrie, Miercuri

    Timp Temperatura Precipitaţii Vânt Presiune Umiditate
    00:00 -1°C° 0 mm 1 m/s 750 mmHg 92%
    01:00 -1°C° 0 mm 1 m/s 750 mmHg 93%
    02:00 -1°C° 0 mm 1 m/s 750 mmHg 93%
    03:00 -3°C° 0 mm 2 m/s 750 mmHg 93%
    04:00 -3°C° 0 mm 2 m/s 750 mmHg 94%
    05:00 -3°C° 0 mm 2 m/s 750 mmHg 94%
    06:00 -3°C° 0 mm 2 m/s 750 mmHg 93%
    07:00 -4°C° 0 mm 2 m/s 750 mmHg 92%
    08:00 -4°C° 0 mm 2 m/s 750 mmHg 91%
    09:00 -3°C° 0 mm 2 m/s 750 mmHg 89%
    10:00 -3°C° 0 mm 2 m/s 750 mmHg 86%
    11:00 -4°C° 0 mm 3 m/s 750 mmHg 84%
    12:00 -4°C° 0 mm 3 m/s 750 mmHg 84%
    13:00 -2°C° 0 mm 3 m/s 750 mmHg 83%
    14:00 -2°C° 0 mm 3 m/s 751 mmHg 83%
    15:00 -2°C° 0 mm 3 m/s 751 mmHg 84%
    16:00 -2°C° 0 mm 3 m/s 751 mmHg 85%
    17:00 -2°C° 0 mm 3 m/s 751 mmHg 87%
    18:00 -2°C° 0 mm 3 m/s 751 mmHg 87%
    19:00 -2°C° 0 mm 3 m/s 751 mmHg 88%
    20:00 -2°C° 0 mm 3 m/s 751 mmHg 88%
    21:00 -2°C° 0 mm 3 m/s 752 mmHg 87%
    22:00 -2°C° 0 mm 3 m/s 752 mmHg 86%
    23:00 -2°C° 0 mm 2 m/s 752 mmHg 84%

    22 Noiembrie, Joi

    Timp Temperatura Precipitaţii Vânt Presiune Umiditate
    00:00 -4°C° 0 mm 3 m/s 752 mmHg 83%
    01:00 -4°C° 0 mm 3 m/s 752 mmHg 82%
    02:00 -4°C° 0 mm 3 m/s 752 mmHg 81%
    03:00 -4°C° 0 mm 3 m/s 752 mmHg 83%
    04:00 -5°C° 0 mm 3 m/s 751 mmHg 84%
    05:00 -5°C° 0 mm 3 m/s 751 mmHg 85%
    06:00 -5°C° 0 mm 3 m/s 751 mmHg 86%
    07:00 -5°C° 0 mm 3 m/s 751 mmHg 87%
    08:00 -5°C° 0 mm 3 m/s 751 mmHg 87%
    09:00 -4°C° 0 mm 4 m/s 751 mmHg 84%
    10:00 -3°C° 0 mm 4 m/s 751 mmHg 81%
    11:00 -3°C° 0 mm 4 m/s 751 mmHg 78%
    12:00 -3°C° 0 mm 4 m/s 751 mmHg 78%
    13:00 -3°C° 0 mm 4 m/s 751 mmHg 79%
    14:00 -3°C° 0 mm 4 m/s 751 mmHg 79%
    15:00 -3°C° 0 mm 4 m/s 751 mmHg 80%
    16:00 -3°C° 0 mm 4 m/s 751 mmHg 82%
    17:00 -3°C° 0 mm 4 m/s 751 mmHg 83%
    18:00 -3°C° 0 mm 4 m/s 751 mmHg 84%
    19:00 -2°C° 0 mm 3 m/s 751 mmHg 85%
    20:00 -2°C° 0 mm 3 m/s 751 mmHg 86%
    21:00 -2°C° 0 mm 3 m/s 751 mmHg 87%
    22:00 -2°C° 0 mm 3 m/s 752 mmHg 88%
    23:00 -2°C° 0 mm 3 m/s 752 mmHg 89%
    Arată mai mult